DLH4PH EDDF-EGLL

Flight info

Callsign DLH4PH
Flight time 1h 19m
Altitude 36000
Route OBOKA3M/25C OBOKA Z29 TORNU DCT ABNED L980 LOGAN
Aircraft A320/M-SDE2E3FGIJ1LORWXYZ/HB1

Departure

Time 2026-04-14 09:23
Airport Frankfurt Main Airport (EDDF)

Arrival

Time 2026-04-14 10:43
Airport London Heathrow Airport (EGLL)
Time Latitude Longitude Altitude Speed Heading
2026-04-14 08:55 50.04540 8.56222 356 ft 0 kts 40°
2026-04-14 09:12 50.04538 8.56220 363 ft 1 kts 40°
2026-04-14 09:12 50.04524 8.56205 362 ft 3 kts 18°
2026-04-14 09:12 50.04509 8.56199 358 ft 2 kts
2026-04-14 09:12 50.04493 8.56198 356 ft 3 kts 324°
2026-04-14 09:13 50.04483 8.56218 361 ft 3 kts 279°
2026-04-14 09:13 50.04483 8.56242 359 ft 1 kts 250°
2026-04-14 09:13 50.04481 8.56234 357 ft 3 kts 250°
2026-04-14 09:13 50.04473 8.56205 356 ft 3 kts 250°
2026-04-14 09:14 50.04466 8.56175 361 ft 3 kts 250°
2026-04-14 09:14 50.04459 8.56146 356 ft 3 kts 250°
2026-04-14 09:14 50.04453 8.56121 359 ft 1 kts 250°
2026-04-14 09:14 50.04452 8.56117 359 ft 0 kts 250°
2026-04-14 09:16 50.04436 8.56048 359 ft 12 kts 240°
2026-04-14 09:17 50.04412 8.56033 356 ft 13 kts 190°
2026-04-14 09:17 50.04298 8.56085 356 ft 0 kts 132°
2026-04-14 09:18 50.04285 8.56094 355 ft 6 kts 176°
2026-04-14 09:18 50.04246 8.55963 357 ft 19 kts 249°
2026-04-14 09:18 50.04165 8.55928 355 ft 12 kts 161°
2026-04-14 09:18 50.04094 8.55974 360 ft 7 kts 154°
2026-04-14 09:19 50.04056 8.56056 354 ft 7 kts 60°
2026-04-14 09:19 50.04097 8.56214 358 ft 28 kts 78°
2026-04-14 09:19 50.04185 8.56523 360 ft 33 kts 66°
2026-04-14 09:19 50.04217 8.56657 364 ft 10 kts 70°
2026-04-14 09:20 50.04244 8.56774 363 ft 13 kts 68°
2026-04-14 09:20 50.04282 8.56929 359 ft 18 kts 69°
2026-04-14 09:20 50.04333 8.57142 363 ft 23 kts 70°
2026-04-14 09:20 50.04393 8.57384 363 ft 24 kts 69°
2026-04-14 09:21 50.04450 8.57634 365 ft 24 kts 70°
2026-04-14 09:21 50.04509 8.57880 366 ft 25 kts 68°
2026-04-14 09:21 50.04570 8.58136 363 ft 26 kts 69°
2026-04-14 09:21 50.04633 8.58386 370 ft 25 kts 68°
2026-04-14 09:22 50.04635 8.58575 371 ft 12 kts 143°
2026-04-14 09:22 50.04551 8.58612 372 ft 16 kts 156°
2026-04-14 09:22 50.04463 8.58493 370 ft 24 kts 245°
2026-04-14 09:22 50.04412 8.58205 371 ft 32 kts 250°
2026-04-14 09:23 50.04247 8.57590 365 ft 103 kts 250°
2026-04-14 09:23 50.03922 8.56163 424 ft 163 kts 252°
2026-04-14 09:23 50.03564 8.54476 1091 ft 167 kts 252°
2026-04-14 09:23 50.03151 8.52750 1777 ft 172 kts 251°
2026-04-14 09:24 50.02684 8.50916 2150 ft 195 kts 244°
2026-04-14 09:24 50.01655 8.49449 2638 ft 213 kts 201°
2026-04-14 09:24 50.00204 8.48948 3383 ft 218 kts 189°
2026-04-14 09:24 49.98712 8.48415 4130 ft 222 kts 195°
2026-04-14 09:25 49.97224 8.47748 4943 ft 223 kts 197°
2026-04-14 09:25 49.95728 8.47039 5749 ft 226 kts 198°
2026-04-14 09:25 49.94140 8.46272 6220 ft 249 kts 198°
2026-04-14 09:25 49.92475 8.45384 6969 ft 257 kts 208°
2026-04-14 09:26 49.91067 8.43749 7835 ft 256 kts 230°
2026-04-14 09:26 49.90073 8.41468 8775 ft 256 kts 242°
2026-04-14 09:26 49.89223 8.39048 9743 ft 256 kts 247°
2026-04-14 09:26 49.88711 8.36399 10391 ft 253 kts 261°
2026-04-14 09:27 49.88679 8.33594 10642 ft 272 kts 274°
2026-04-14 09:27 49.88851 8.30559 10916 ft 296 kts 274°
2026-04-14 09:27 49.89229 8.27294 11254 ft 317 kts 288°
2026-04-14 09:27 49.90224 8.24181 11921 ft 326 kts 303°
2026-04-14 09:28 49.91581 8.21302 12697 ft 331 kts 304°
2026-04-14 09:28 49.92957 8.18409 13493 ft 335 kts 304°
2026-04-14 09:28 49.94423 8.15646 14199 ft 341 kts 313°
2026-04-14 09:28 49.96206 8.13177 14868 ft 346 kts 317°
2026-04-14 09:29 49.98052 8.10713 15538 ft 349 kts 317°
2026-04-14 09:29 49.99911 8.08241 16192 ft 353 kts 317°
2026-04-14 09:29 50.01790 8.05742 16850 ft 357 kts 317°
2026-04-14 09:29 50.03686 8.03215 17501 ft 361 kts 317°
2026-04-14 09:30 50.05603 8.00649 18149 ft 364 kts 317°
2026-04-14 09:30 50.07528 7.98058 18746 ft 368 kts 317°
2026-04-14 09:30 50.09473 7.95438 19318 ft 371 kts 317°
2026-04-14 09:30 50.11438 7.92796 19892 ft 374 kts 317°
2026-04-14 09:31 50.13420 7.90129 20462 ft 377 kts 317°
2026-04-14 09:31 50.15395 7.87465 21037 ft 381 kts 316°
2026-04-14 09:31 50.17405 7.84747 21599 ft 384 kts 316°
2026-04-14 09:31 50.19431 7.82002 22170 ft 387 kts 316°
2026-04-14 09:32 50.21474 7.79233 22797 ft 388 kts 317°
2026-04-14 09:32 50.22832 7.77394 23217 ft 390 kts 317°
2026-04-14 09:32 50.27333 7.72534 24213 ft 400 kts 333°
2026-04-14 09:33 50.29897 7.70796 24684 ft 402 kts 335°
2026-04-14 09:33 50.32444 7.69068 25150 ft 404 kts 334°
2026-04-14 09:33 50.35020 7.67301 25615 ft 406 kts 334°
2026-04-14 09:33 50.37608 7.65519 26076 ft 407 kts 334°
2026-04-14 09:34 50.40210 7.63725 26516 ft 409 kts 334°
2026-04-14 09:34 50.42824 7.61923 26948 ft 411 kts 334°
2026-04-14 09:34 50.45459 7.60103 27379 ft 413 kts 334°
2026-04-14 09:34 50.48099 7.58278 27788 ft 415 kts 334°
2026-04-14 09:35 50.50711 7.56474 28183 ft 417 kts 335°
2026-04-14 09:35 50.53373 7.54640 28596 ft 418 kts 335°
2026-04-14 09:35 50.56018 7.52682 28988 ft 419 kts 329°
2026-04-14 09:35 50.58487 7.50248 29369 ft 420 kts 326°
2026-04-14 09:36 50.60965 7.47714 29745 ft 422 kts 326°
2026-04-14 09:36 50.63417 7.45201 30132 ft 423 kts 326°
2026-04-14 09:36 50.65901 7.42649 30496 ft 424 kts 325°
2026-04-14 09:36 50.68359 7.40123 30796 ft 426 kts 325°
2026-04-14 09:37 50.70852 7.37555 31083 ft 427 kts 325°
2026-04-14 09:37 50.73350 7.34978 31378 ft 429 kts 325°
2026-04-14 09:37 50.75824 7.32423 31656 ft 430 kts 325°
2026-04-14 09:37 50.78365 7.29798 31970 ft 430 kts 325°
2026-04-14 09:38 50.80837 7.27239 32362 ft 429 kts 325°
2026-04-14 09:38 50.83337 7.24643 32760 ft 427 kts 325°
2026-04-14 09:38 50.85815 7.22065 33152 ft 425 kts 325°
2026-04-14 09:38 50.88268 7.19505 33540 ft 424 kts 325°
2026-04-14 09:39 50.90727 7.16933 33931 ft 423 kts 325°
2026-04-14 09:39 50.93035 7.14073 34296 ft 420 kts 312°
2026-04-14 09:39 50.94707 7.10314 34574 ft 419 kts 296°
2026-04-14 09:39 50.95559 7.05875 34814 ft 420 kts 280°
2026-04-14 09:40 50.96005 7.01391 35024 ft 421 kts 280°
2026-04-14 09:40 50.96464 6.96754 35265 ft 422 kts 280°
2026-04-14 09:40 50.97083 6.92242 35485 ft 421 kts 288°
2026-04-14 09:40 50.97980 6.87775 35702 ft 421 kts 288°
2026-04-14 09:41 50.98868 6.83339 35921 ft 422 kts 288°
2026-04-14 09:41 50.99757 6.78893 36123 ft 422 kts 288°
2026-04-14 09:41 51.00641 6.74462 36184 ft 418 kts 288°
2026-04-14 09:42 51.02384 6.65680 36193 ft 415 kts 288°
2026-04-14 09:42 51.04093 6.57024 36193 ft 413 kts 289°
2026-04-14 09:43 51.05812 6.48281 36193 ft 412 kts 289°
2026-04-14 09:43 51.07510 6.39617 36191 ft 412 kts 289°
2026-04-14 09:44 51.09084 6.31556 36193 ft 412 kts 289°
2026-04-14 09:44 51.10771 6.22860 36211 ft 412 kts 288°
2026-04-14 09:45 51.12454 6.14122 36209 ft 412 kts 289°
2026-04-14 09:45 51.14130 6.05386 36221 ft 411 kts 289°
2026-04-14 09:46 51.15785 5.96725 36219 ft 410 kts 289°
2026-04-14 09:46 51.17447 5.87979 36219 ft 410 kts 289°
2026-04-14 09:47 51.17635 5.86988 36218 ft 410 kts 289°
2026-04-14 09:48 51.19507 5.78894 36222 ft 408 kts 295°
2026-04-14 09:49 51.21263 5.72294 36220 ft 407 kts 294°
2026-04-14 09:50 51.21793 5.70282 36209 ft 407 kts 295°
2026-04-14 09:50 51.23981 5.61952 36208 ft 406 kts 295°
2026-04-14 09:51 51.26167 5.53643 36211 ft 405 kts 295°
2026-04-14 09:51 51.28326 5.45396 36212 ft 404 kts 295°
2026-04-14 09:52 51.30489 5.37093 36210 ft 403 kts 295°
2026-04-14 09:52 51.32641 5.28808 36207 ft 403 kts 295°
2026-04-14 09:53 51.34787 5.20487 36203 ft 402 kts 295°
2026-04-14 09:53 51.36902 5.12274 36207 ft 402 kts 295°
2026-04-14 09:54 51.39016 5.04027 36192 ft 393 kts 295°
2026-04-14 09:54 51.40018 5.00095 36188 ft 370 kts 295°
2026-04-14 09:54 51.40977 4.96336 36193 ft 360 kts 295°
2026-04-14 09:55 51.42835 4.89041 36192 ft 351 kts 295°
2026-04-14 09:55 51.44672 4.81848 36194 ft 344 kts 295°
2026-04-14 09:56 51.46461 4.74804 36187 ft 337 kts 295°
2026-04-14 09:56 51.48181 4.67936 36215 ft 331 kts 294°
2026-04-14 09:57 51.49889 4.61137 36192 ft 325 kts 295°
2026-04-14 09:57 51.51569 4.54460 36193 ft 318 kts 295°
2026-04-14 09:58 51.53209 4.47911 36193 ft 311 kts 295°
2026-04-14 09:58 51.54790 4.41572 36191 ft 304 kts 295°
2026-04-14 09:58 51.55575 4.38420 36191 ft 300 kts 295°
2026-04-14 09:59 51.56346 4.35322 36192 ft 297 kts 295°
2026-04-14 09:59 51.57088 4.32242 36181 ft 294 kts 289°
2026-04-14 09:59 51.57779 4.29124 35908 ft 299 kts 296°
2026-04-14 09:59 51.58553 4.26010 35771 ft 299 kts 292°
2026-04-14 10:00 51.59198 4.22903 35895 ft 290 kts 291°
2026-04-14 10:00 51.59832 4.19888 36082 ft 280 kts 293°
2026-04-14 10:00 51.60493 4.16919 35879 ft 285 kts 294°
2026-04-14 10:00 51.61180 4.13903 35504 ft 296 kts 293°
2026-04-14 10:01 51.61909 4.10794 35613 ft 295 kts 294°
2026-04-14 10:01 51.62656 4.07757 35997 ft 284 kts 295°
2026-04-14 10:01 51.63360 4.04835 36293 ft 282 kts 294°
2026-04-14 10:01 51.64078 4.01751 35832 ft 304 kts 293°
2026-04-14 10:02 51.64841 3.98495 35507 ft 321 kts 294°
2026-04-14 10:02 51.65746 3.95142 35181 ft 339 kts 298°
2026-04-14 10:02 51.66779 3.91681 35324 ft 343 kts 298°
2026-04-14 10:02 51.67798 3.88195 35587 ft 344 kts 297°
2026-04-14 10:03 51.68772 3.84653 35842 ft 345 kts 296°
2026-04-14 10:03 51.69697 3.81071 36093 ft 347 kts 295°
2026-04-14 10:03 51.70596 3.77410 36180 ft 354 kts 294°
2026-04-14 10:04 51.72389 3.69871 36195 ft 369 kts 294°
2026-04-14 10:04 51.74274 3.61981 36199 ft 384 kts 294°
2026-04-14 10:05 51.76239 3.53798 36222 ft 396 kts 293°
2026-04-14 10:05 51.78234 3.45453 36227 ft 399 kts 293°
2026-04-14 10:06 51.80227 3.37083 36210 ft 398 kts 293°
2026-04-14 10:06 51.82187 3.28800 36212 ft 396 kts 293°
2026-04-14 10:07 51.84033 3.20391 36205 ft 398 kts 286°
2026-04-14 10:07 51.84536 3.11418 36205 ft 406 kts 270°
2026-04-14 10:08 51.83946 3.02283 36199 ft 408 kts 268°
2026-04-14 10:08 51.83355 2.93196 36204 ft 408 kts 269°
2026-04-14 10:09 51.82755 2.84068 36188 ft 406 kts 269°
2026-04-14 10:09 51.82151 2.75046 36011 ft 406 kts 269°
2026-04-14 10:09 51.81843 2.70512 35758 ft 403 kts 269°
2026-04-14 10:10 51.81534 2.66015 35502 ft 401 kts 269°
2026-04-14 10:10 51.81230 2.61552 35135 ft 397 kts 269°
2026-04-14 10:10 51.80928 2.57137 34775 ft 393 kts 269°
2026-04-14 10:10 51.80626 2.52763 34428 ft 390 kts 269°
2026-04-14 10:11 51.80324 2.48441 34051 ft 386 kts 269°
2026-04-14 10:11 51.80020 2.44113 33643 ft 383 kts 269°
2026-04-14 10:11 51.79717 2.39860 33219 ft 379 kts 269°
2026-04-14 10:11 51.79413 2.35648 32817 ft 375 kts 269°
2026-04-14 10:12 51.79109 2.31480 32411 ft 372 kts 269°
2026-04-14 10:12 51.78808 2.27335 32033 ft 369 kts 269°
2026-04-14 10:12 51.78514 2.23283 31635 ft 368 kts 270°
2026-04-14 10:12 51.78233 2.19193 31262 ft 365 kts 270°
2026-04-14 10:13 51.77987 2.15121 30887 ft 362 kts 271°
2026-04-14 10:13 51.77761 2.11085 30523 ft 360 kts 271°
2026-04-14 10:13 51.77539 2.07076 30145 ft 357 kts 271°
2026-04-14 10:13 51.77316 2.03087 29714 ft 355 kts 271°
2026-04-14 10:14 51.77090 1.99101 29291 ft 353 kts 271°
2026-04-14 10:14 51.76862 1.95170 28874 ft 352 kts 270°
2026-04-14 10:14 51.76631 1.91288 28463 ft 349 kts 270°
2026-04-14 10:14 51.76395 1.87395 28048 ft 346 kts 270°
2026-04-14 10:15 51.76156 1.83527 27648 ft 345 kts 270°
2026-04-14 10:15 51.75917 1.79677 27256 ft 343 kts 269°
2026-04-14 10:15 51.75680 1.75853 26870 ft 342 kts 269°
2026-04-14 10:15 51.75442 1.72044 26484 ft 340 kts 269°
2026-04-14 10:16 51.75203 1.68242 26111 ft 339 kts 269°
2026-04-14 10:16 51.74964 1.64455 25735 ft 338 kts 269°
2026-04-14 10:16 51.74727 1.60688 25371 ft 337 kts 268°
2026-04-14 10:16 51.74493 1.56977 25014 ft 335 kts 268°
2026-04-14 10:17 51.74257 1.53240 24647 ft 334 kts 268°
2026-04-14 10:17 51.74019 1.49506 24294 ft 333 kts 268°
2026-04-14 10:17 51.73781 1.45783 23949 ft 332 kts 268°
2026-04-14 10:17 51.73541 1.42084 23561 ft 331 kts 268°
2026-04-14 10:18 51.73063 1.34756 22532 ft 330 kts 267°
2026-04-14 10:18 51.72823 1.31077 21999 ft 330 kts 267°
2026-04-14 10:18 51.72582 1.27398 21477 ft 330 kts 266°
2026-04-14 10:19 51.72338 1.23719 20970 ft 330 kts 266°
2026-04-14 10:19 51.72171 1.21240 20615 ft 326 kts 266°
2026-04-14 10:19 51.71927 1.17668 20110 ft 317 kts 265°
2026-04-14 10:19 51.71687 1.14162 19613 ft 312 kts 265°
2026-04-14 10:20 51.71454 1.10728 19137 ft 310 kts 265°
2026-04-14 10:20 51.71218 1.07287 18663 ft 308 kts 264°
2026-04-14 10:20 51.70984 1.03869 18159 ft 305 kts 264°
2026-04-14 10:20 51.70750 1.00459 17624 ft 307 kts 264°
2026-04-14 10:21 51.70516 0.97011 17100 ft 309 kts 264°
2026-04-14 10:21 51.70281 0.93544 16567 ft 311 kts 264°
2026-04-14 10:21 51.70046 0.90110 16205 ft 309 kts 264°
2026-04-14 10:21 51.69813 0.86721 16150 ft 300 kts 264°
2026-04-14 10:22 51.69581 0.83391 16157 ft 298 kts 264°
2026-04-14 10:22 51.69347 0.80065 16159 ft 298 kts 264°
2026-04-14 10:22 51.69109 0.76723 15610 ft 305 kts 264°
2026-04-14 10:22 51.68863 0.73254 14954 ft 313 kts 264°
2026-04-14 10:23 51.68617 0.69757 14505 ft 314 kts 264°
2026-04-14 10:23 51.68374 0.66309 14107 ft 313 kts 264°
2026-04-14 10:23 51.68126 0.62833 13682 ft 311 kts 264°
2026-04-14 10:23 51.67875 0.59362 13249 ft 309 kts 264°
2026-04-14 10:24 51.67625 0.55926 12831 ft 307 kts 264°
2026-04-14 10:24 51.67376 0.52512 12417 ft 305 kts 264°
2026-04-14 10:24 51.67131 0.49122 11992 ft 303 kts 264°
2026-04-14 10:24 51.66890 0.45780 11761 ft 295 kts 264°
2026-04-14 10:25 51.66696 0.42586 11624 ft 284 kts 266°
2026-04-14 10:25 51.66549 0.39439 11384 ft 278 kts 266°
2026-04-14 10:25 51.66409 0.36340 11043 ft 276 kts 266°
2026-04-14 10:25 51.66272 0.33260 10691 ft 274 kts 266°
2026-04-14 10:26 51.66137 0.30213 10326 ft 273 kts 266°
2026-04-14 10:26 51.66000 0.27165 9960 ft 271 kts 266°
2026-04-14 10:26 51.65868 0.24177 9596 ft 269 kts 266°
2026-04-14 10:26 51.65744 0.21166 9190 ft 268 kts 266°
2026-04-14 10:27 51.65631 0.18176 8772 ft 267 kts 266°
2026-04-14 10:27 51.65531 0.15188 8369 ft 266 kts 266°
2026-04-14 10:27 51.65442 0.12261 8136 ft 265 kts 266°
2026-04-14 10:27 51.65362 0.09292 8134 ft 266 kts 266°
2026-04-14 10:28 51.65283 0.06275 8135 ft 265 kts 266°
2026-04-14 10:28 51.65211 0.03339 8138 ft 266 kts 266°
2026-04-14 10:28 51.65136 0.00402 8133 ft 254 kts 266°
2026-04-14 10:28 51.65068 -0.02357 8118 ft 238 kts 266°
2026-04-14 10:29 51.65008 -0.04985 8114 ft 235 kts 266°
2026-04-14 10:29 51.64945 -0.07619 8118 ft 235 kts 266°
2026-04-14 10:29 51.64881 -0.10236 8112 ft 233 kts 266°
2026-04-14 10:29 51.64820 -0.12853 8111 ft 234 kts 266°
2026-04-14 10:30 51.64757 -0.15487 8108 ft 236 kts 266°
2026-04-14 10:30 51.64689 -0.18125 8110 ft 236 kts 266°
2026-04-14 10:30 51.64625 -0.20763 8111 ft 235 kts 266°
2026-04-14 10:30 51.64565 -0.23357 8110 ft 234 kts 266°
2026-04-14 10:31 51.64499 -0.25987 8089 ft 236 kts 266°
2026-04-14 10:31 51.64437 -0.28628 7823 ft 234 kts 266°
2026-04-14 10:31 51.64384 -0.31240 7570 ft 233 kts 266°
2026-04-14 10:31 51.64333 -0.33836 7320 ft 232 kts 266°
2026-04-14 10:32 51.64292 -0.36440 7148 ft 232 kts 266°
2026-04-14 10:32 51.64251 -0.39050 7115 ft 232 kts 266°
2026-04-14 10:32 51.64217 -0.41649 7110 ft 233 kts 266°
2026-04-14 10:32 51.64178 -0.44269 7109 ft 233 kts 266°
2026-04-14 10:33 51.64141 -0.46880 7109 ft 233 kts 266°
2026-04-14 10:33 51.64097 -0.49494 7111 ft 234 kts 266°
2026-04-14 10:33 51.64059 -0.52094 7111 ft 232 kts 266°
2026-04-14 10:33 51.64023 -0.54704 7109 ft 232 kts 266°
2026-04-14 10:34 51.63887 -0.59896 7111 ft 230 kts 258°
2026-04-14 10:34 51.63288 -0.62234 7116 ft 227 kts 237°
2026-04-14 10:34 51.62481 -0.64400 7116 ft 229 kts 238°
2026-04-14 10:35 51.61664 -0.66588 7112 ft 228 kts 238°
2026-04-14 10:35 51.60842 -0.68790 7114 ft 229 kts 238°
2026-04-14 10:35 51.60015 -0.71002 6966 ft 231 kts 238°
2026-04-14 10:35 51.59431 -0.73362 6763 ft 229 kts 259°
2026-04-14 10:36 51.59222 -0.75937 6196 ft 237 kts 254°
2026-04-14 10:36 51.58437 -0.78249 5666 ft 237 kts 221°
2026-04-14 10:36 51.57036 -0.79503 5430 ft 229 kts 193°
2026-04-14 10:36 51.55462 -0.79494 4985 ft 227 kts 173°
2026-04-14 10:37 51.53911 -0.79254 4580 ft 218 kts 179°
2026-04-14 10:37 51.52435 -0.79191 4261 ft 206 kts 180°
2026-04-14 10:37 51.51055 -0.79120 3971 ft 196 kts 173°
2026-04-14 10:37 51.49769 -0.78476 3723 ft 190 kts 155°
2026-04-14 10:38 51.48714 -0.77204 3592 ft 190 kts 138°
2026-04-14 10:38 51.47983 -0.75481 3432 ft 188 kts 121°
2026-04-14 10:38 51.47640 -0.73450 3197 ft 188 kts 102°
2026-04-14 10:38 51.47634 -0.71404 2940 ft 178 kts 96°
2026-04-14 10:39 51.47647 -0.69501 2742 ft 161 kts 97°
2026-04-14 10:39 51.47658 -0.67763 2510 ft 151 kts 97°
2026-04-14 10:39 51.47666 -0.66110 2312 ft 145 kts 97°
2026-04-14 10:39 51.47674 -0.64495 2115 ft 144 kts 97°
2026-04-14 10:40 51.47682 -0.62910 1918 ft 141 kts 97°
2026-04-14 10:40 51.47689 -0.61340 1719 ft 140 kts 96°
2026-04-14 10:40 51.47697 -0.59773 1516 ft 141 kts 96°
2026-04-14 10:40 51.47705 -0.58203 1332 ft 140 kts 95°
2026-04-14 10:41 51.47712 -0.56648 1143 ft 139 kts 94°
2026-04-14 10:41 51.47719 -0.55095 943 ft 139 kts 95°
2026-04-14 10:41 51.47735 -0.53544 687 ft 144 kts 96°
2026-04-14 10:41 51.47763 -0.51928 479 ft 146 kts 98°
2026-04-14 10:42 51.47750 -0.50316 357 ft 145 kts 96°
2026-04-14 10:42 51.47755 -0.48698 141 ft 144 kts 97°
2026-04-14 10:42 51.47757 -0.47150 89 ft 127 kts 90°
2026-04-14 10:42 51.47755 -0.46016 89 ft 80 kts 91°
2026-04-14 10:43 51.47762 -0.45418 85 ft 32 kts 90°
2026-04-14 10:43 51.47738 -0.45213 89 ft 9 kts 153°
2026-04-14 10:43 51.47640 -0.45153 86 ft 20 kts 174°
2026-04-14 10:43 51.47587 -0.45303 90 ft 17 kts 258°
2026-04-14 10:44 51.47587 -0.45520 86 ft 22 kts 271°
2026-04-14 10:44 51.47593 -0.45787 86 ft 26 kts 272°
2026-04-14 10:44 51.47594 -0.46101 88 ft 30 kts 270°
2026-04-14 10:44 51.47593 -0.46459 86 ft 33 kts 269°
2026-04-14 10:45 51.47587 -0.46838 86 ft 35 kts 267°
2026-04-14 10:45 51.47583 -0.47211 90 ft 25 kts 269°
2026-04-14 10:45 51.47581 -0.47516 88 ft 29 kts 269°
2026-04-14 10:45 51.47578 -0.47863 89 ft 33 kts 269°
2026-04-14 10:46 51.47577 -0.48239 86 ft 30 kts 270°
2026-04-14 10:46 51.47560 -0.48470 90 ft 9 kts 210°
2026-04-14 10:46 51.47490 -0.48481 86 ft 11 kts 194°
2026-04-14 10:46 51.47408 -0.48475 86 ft 13 kts 180°
2026-04-14 10:47 51.47312 -0.48472 86 ft 15 kts 179°
2026-04-14 10:47 51.47263 -0.48492 89 ft 7 kts 234°
2026-04-14 10:47 51.47273 -0.48552 89 ft 3 kts 288°
2026-04-14 10:47 51.47272 -0.48569 88 ft 1 kts 270°
2026-04-14 10:48 51.47271 -0.48575 87 ft 0 kts 267°
2026-04-14 10:48 51.47271 -0.48578 87 ft 2 kts 267°
2026-04-14 10:48 51.47271 -0.48592 89 ft 1 kts 269°
2026-04-14 10:48 51.47271 -0.48593 89 ft 0 kts 269°